Location: Bouchavesnes-Bergen
(49.9859°N, 2.9203°E)
Time: 01:14:11
(UTC+00:00)

IDEFIX/ARIANE 42P - Pass Details

Date: 01 October 2022
Orbit: 784 x 803 km, 98.5° (Epoch: 05 December)

Event Time Altitude Azimuth Distance (km) Brightness Sun altitude
Rises 00:35:55 0° 28° (NNE) 3,328 6.6 -41.5°
Reaches altitude 10° 00:39:11 10° 49° (NE) 2,391 5.6 -41.4°
Enters shadow 00:40:13 13° 59° (ENE) 2,179 5.2 -41.3°
